H1 CPF 2 NER 2024 11 10 9 315 01 glonass144 H2 2207501 9144 52984 2024 11 10 0 0 0 2024 11 13 23 45 0 900 1 1 0 0 0 1 H9 10 0 60624 0.00000 0 10249019.827 4005611.014 23044553.154 10 0 60624 900.00000 0 9609985.151 6745192.983 22678018.066 10 0 60624 1800.00000 0 9184087.988 9453070.534 21872572.674 10 0 60624 2700.00000 0 8969051.542 12060534.786 20643770.684 10 0 60624 3600.00000 0 8950545.485 14501456.329 19015333.547 10 0 60624 4500.00000 0 9102907.060 16714810.825 17018702.190 10 0 60624 5400.00000 0 9390350.932 18647004.537 14692442.161 10 0 60624 6300.00000 0 9768617.687 20253904.463 12081512.272 10 0 60624 7200.00000 0 10186992.658 21502489.358 9236409.389 10 0 60624 8100.00000 0 10590611.069 22372053.210 6212204.426 10 0 60624 9000.00000 0 10922953.224 22854910.768 3067486.890 10 0 60624 9900.00000 0 11128425.004 22956575.103 -136762.552 10 0 60624 10800.00000 0 11154914.796 22695399.013 -3338350.287 10 0 60624 11700.00000 0 10956218.360 22101694.452 -6475076.146 10 0 60624 12600.00000 0 10494228.173 21216366.126 -9485944.410 10 0 60624 13500.00000 0 9740793.159 20089116.030 -12312355.425 10 0 60624 14400.00000 0 8679168.330 18776294.003 -14899253.984 10 0 60624 15300.00000 0 7304990.845 17338484.657 -17196211.218 10 0 60624 16200.00000 0 5626738.945 15837932.404 -19158417.992 10 0 60624 17100.00000 0 3665651.983 14335913.375 -20747569.529 10 0 60624 18000.00000 0 1455112.700 12890165.498 -21932623.110 10 0 60624 18900.00000 0 -960484.331 11552485.540 -22690413.333 10 0 60624 19800.00000 0 -3527332.237 10366594.946 -23006112.271 10 0 60624 20700.00000 0 -6184213.562 9366364.799 -22873525.032 10 0 60624 21600.00000 0 -8864821.160 8574474.984 -22295214.578 10 0 60624 22500.00000 0 -11500301.649 8001564.032 -21282453.089 10 0 60624 23400.00000 0 -14021915.170 7645905.205 -19855000.715 10 0 60624 24300.00000 0 -16363700.135 7493621.858 -18040716.043 10 0 60624 25200.00000 0 -18465031.418 7519432.065 -15875006.059 10 0 60624 26100.00000 0 -20272964.758 7687889.818 -13400126.746 10 0 60624 27000.00000 0 -21744269.310 7955068.941 -10664348.544 10 0 60624 27900.00000 0 -22847063.518 8270616.865 -7721003.724 10 0 60624 28800.00000 0 -23561986.387 8580089.757 -4627435.265 10 0 60624 29700.00000 0 -23882856.139 8827468.552 -1443868.801 10 0 60624 30600.00000 0 -23816790.053 8957747.985 1767769.249 10 0 60624 31500.00000 0 -23383782.283 8919487.898 4945063.259 10 0 60624 32400.00000 0 -22615759.374 8667218.090 8026325.230 10 0 60624 33300.00000 0 -21555155.161 8163594.648 10951792.654 10 0 60624 34200.00000 0 -20253066.782 7381216.632 13664783.895 10 0 60624 35100.00000 0 -18767070.689 6304026.754 16112788.919 10 0 60624 36000.00000 0 -17158791.288 4928237.457 18248474.944 10 0 60624 36900.00000 0 -15491324.477 3262743.928 20030588.578 10 0 60624 37800.00000 0 -13826623.734 1329006.954 21424738.419 10 0 60624 38700.00000 0 -12222957.179 -839589.468 22404044.563 10 0 60624 39600.00000 0 -10732540.564 -3198879.370 22949644.083 10 0 60624 40500.00000 0 -9399443.303 -5695508.173 23051044.144 10 0 60624 41400.00000 0 -8257853.086 -8268913.214 22706317.149 10 0 60624 42300.00000 0 -7330769.713 -10853610.753 21922134.867 10 0 60624 43200.00000 0 -6629181.088 -13381696.468 20713641.159 10 0 60624 44100.00000 0 -6151754.601 -15785457.706 19104165.509 10 0 60624 45000.00000 0 -5885056.087 -17999991.006 17124782.173 10 0 60624 45900.00000 0 -5804286.953 -19965717.931 14813722.332 10 0 60624 46800.00000 0 -5874508.817 -21630696.052 12215649.211 10 0 60624 47700.00000 0 -6052304.749 -22952629.748 9380808.689 10 0 60624 48600.00000 0 -6287808.042 -23900497.433 6364070.307 10 0 60624 49500.00000 0 -6527013.765 -24455727.162 3223875.939 10 0 60624 50400.00000 0 -6714276.207 -24612870.870 21115.450 10 0 60624 51300.00000 0 -6794886.962 -24379748.158 -3182049.496 10 0 60624 52200.00000 0 -6717624.530 -23777052.476 -6323391.006 10 0 60624 53100.00000 0 -6437166.869 -22837435.147 -9341826.282 10 0 60624 54000.00000 0 -5916263.685 -21604104.655 -12178610.793 10 0 60624 54900.00000 0 -5127574.872 -20128999.295 -14778489.348 10 0 60624 55800.00000 0 -4055095.412 -18470609.480 -17090781.805 10 0 60624 56700.00000 0 -2695104.233 -16691541.069 -19070381.321 10 0 60624 57600.00000 0 -1056594.640 -14855922.253 -20678644.769 10 0 60624 58500.00000 0 838834.122 -13026763.310 -21884157.067 10 0 60624 59400.00000 0 2957621.783 -11263380.668 -22663353.748 10 0 60624 60300.00000 0 5255403.171 -9618994.002 -23000988.990 10 0 60624 61200.00000 0 7678628.488 -8138597.745 -22890439.433 10 0 60624 62100.00000 0 10166580.870 -6857196.735 -22333837.475 10 0 60624 63000.00000 0 12653707.359 -5798480.111 -21342031.171 10 0 60624 63900.00000 0 15072165.939 -4973988.935 -19934371.384 10 0 60624 64800.00000 0 17354481.977 -4382811.876 -18138330.354 10 0 60624 65700.00000 0 19436202.625 -4011820.737 -15988959.303 10 0 60624 66600.00000 0 21258437.736 -3836434.539 -13528196.050 10 0 60624 67500.00000 0 22770180.559 -3821878.276 -10804036.728 10 0 60624 68400.00000 0 23930310.958 -3924881.340 -7869588.525 10 0 60624 69300.00000 0 24709197.305 -4095741.888 -4782022.923 10 0 60624 70200.00000 0 25089830.525 -4280667.951 -1601450.927 10 0 60624 71100.00000 0 25068443.654 -4424294.439 1610256.694 10 0 60624 72000.00000 0 24654592.314 -4472268.075 4790680.080 10 0 60624 72900.00000 0 23870694.371 -4373789.733 7878067.410 10 0 60624 73800.00000 0 22751049.892 -4084005.953 10812534.271 10 0 60624 74700.00000 0 21340384.315 -3566148.298 13537221.669 10 0 60624 75600.00000 0 19691977.419 -2793330.316 15999390.475 10 0 60624 76500.00000 0 17865457.647 -1749926.701 18151431.729 10 0 60624 77400.00000 0 15924354.688 -432477.085 19951774.279 10 0 60624 78300.00000 0 13933512.647 1149923.102 21365673.605 10 0 60624 79200.00000 0 11956471.146 2975760.905 22365868.124 10 0 60624 80100.00000 0 10052922.488 5011767.604 22933091.918 10 0 60624 81000.00000 0 8276349.186 7214076.921 23056435.437 10 0 60624 81900.00000 0 6671938.406 9529832.461 22733548.433 10 0 60624 82800.00000 0 5274858.189 11899178.885 21970681.975 10 0 60624 83700.00000 0 4108965.428 14257555.832 20782569.034 10 0 60624 84600.00000 0 3185997.825 16538201.196 19192145.724 10 0 60624 85500.00000 0 2505282.403 18674761.677 17230117.898 10 0 60625 0.00000 0 2053972.058 20603903.716 14934380.561 10 0 60625 900.00000 0 1807799.785 22267818.661 12349298.654 10 0 60625 1800.00000 0 1732319.710 23616516.304 9524864.730 10 0 60625 2700.00000 0 1784582.411 24609815.051 6515744.250 10 0 60625 3600.00000 0 1915175.297 25218942.973 3380228.587 10 0 60625 4500.00000 0 2070542.288 25427683.230 179113.858 10 0 60625 5400.00000 0 2195485.280 25233014.804 -3025473.212 10 0 60625 6300.00000 0 2235741.709 24645220.382 -6171279.915 10 0 60625 7200.00000 0 2140528.735 23687455.509 -9197139.163 10 0 60625 8100.00000 0 1864945.558 22394795.734 -12044164.112 10 0 60625 9000.00000 0 1372130.815 20812800.589 -14656901.895 10 0 60625 9900.00000 0 635082.073 18995653.769 -16984423.118 10 0 60625 10800.00000 0 -361941.556 17003957.082 -18981324.967 10 0 60625 11700.00000 0 -1622495.146 14902270.451 -20608627.432 10 0 60625 12600.00000 0 -3137543.275 12756501.314 -21834544.282 10 0 60625 13500.00000 0 -4885594.133 10631253.171 -22635112.945 10 0 60625 14400.00000 0 -6833368.713 8587244.840 -22994670.403 10 0 60625 15300.00000 0 -8936978.552 6678909.026 -22906165.223 10 0 60625 16200.00000 0 -11143563.757 4952271.146 -22371299.292 10 0 60625 17100.00000 0 -13393323.429 3443197.392 -21400496.193 10 0 60625 18000.00000 0 -15621853.681 2176085.284 -20012696.732 10 0 60625 18900.00000 0 -17762695.282 1163051.064 -18234985.598 10 0 60625 19800.00000 0 -19749983.906 403647.050 -16102056.649 10 0 60625 20700.00000 0 -21521091.414 -114880.527 -13655527.587 10 0 60625 21600.00000 0 -23019146.966 -416805.784 -10943118.013 10 0 60625 22500.00000 0 -24195331.833 -536644.679 -8017707.606 10 0 60625 23400.00000 0 -25010851.413 -517439.790 -4936293.794 10 0 60625 24300.00000 0 -25438501.833 -408683.048 -1758870.310 10 0 60625 25200.00000 0 -25463765.882 -263966.277 1452750.433 10 0 60625 26100.00000 0 -25085393.169 -138460.752 4636147.065 10 0 60625 27000.00000 0 -24315441.397 -86333.845 7729506.682 10 0 60625 27900.00000 0 -23178778.492 -158213.054 10672825.673 10 0 60625 28800.00000 0 -21712068.044 -398805.150 13409070.332 10 0 60625 29700.00000 0 -19962282.020 -844771.112 15885274.947 10 0 60625 30600.00000 0 -17984804.187 -1522946.230 18053556.698 10 0 60625 31500.00000 0 -15841204.283 -2448979.849 19872028.746 10 0 60625 32400.00000 0 -13596776.061 -3626451.416 21305595.205 10 0 60625 33300.00000 0 -11317941.447 -5046499.493 22326614.224 10 0 60625 34200.00000 0 -9069627.960 -6687979.112 22915417.934 10 0 60625 35100.00000 0 -6912727.032 -8518141.121 23060680.749 10 0 60625 36000.00000 0 -4901737.041 -10493805.857 22759630.094 10 0 60625 36900.00000 0 -3082687.046 -12562983.320 22018096.328 10 0 60625 37800.00000 0 -1491425.495 -14666873.902 20850401.198 10 0 60625 38700.00000 0 -152343.250 -16742168.165 19279086.806 10 0 60625 39600.00000 0 922417.399 -18723551.822 17334489.640 10 0 60625 40500.00000 0 1733235.859 -20546313.452 15054166.808 10 0 60625 41400.00000 0 2292757.716 -22148947.868 12482184.179 10 0 60625 42300.00000 0 2625121.449 -23475647.726 9668278.696 10 0 60625 43200.00000 0 2764699.661 -24478580.010 6666909.540 10 0 60625 44100.00000 0 2754407.324 -25119852.321 3536215.150 10 0 60625 45000.00000 0 2643647.770 -25373086.184 336895.255 10 0 60625 45900.00000 0 2485982.695 -25224530.472 -2868961.144 10 0 60625 46800.00000 0 2336624.392 -24673666.901 -6019079.432 10 0 60625 47700.00000 0 2249856.440 -23733280.586 -9052211.209 10 0 60625 48600.00000 0 2276492.540 -22428991.055 -11909330.334 10 0 60625 49500.00000 0 2461482.098 -20798261.811 -14534789.259 10 0 60625 50400.00000 0 2841765.273 -18888928.741 -16877412.238 10 0 60625 51300.00000 0 3444469.980 -16757308.053 -18891503.207 10 0 60625 52200.00000 0 4285529.047 -14465962.478 -20537747.728 10 0 60625 53100.00000 0 5368777.972 -12081219.041 -21783990.508 10 0 60625 54000.00000 0 6685573.385 -9670542.396 -22605872.563 10 0 60625 54900.00000 0 8214950.201 -7299873.856 -22987314.906 10 0 60625 55800.00000 0 9924312.427 -5031047.838 -22920838.802 10 0 60625 56700.00000 0 11770629.869 -2919394.056 -22407715.946 10 0 60625 57600.00000 0 13702091.327 -1011625.929 -21457945.340 10 0 60625 58500.00000 0 15660145.293 655896.497 -20090057.212 10 0 60625 59400.00000 0 17581842.534 2058456.856 -18330747.777 10 0 60625 60300.00000 0 19402382.012 3183772.730 -16214352.180 10 0 60625 61200.00000 0 21057752.660 4032253.992 -13782166.231 10 0 60625 62100.00000 0 22487359.537 4616720.009 -11081630.784 10 0 60625 63000.00000 0 23636523.383 4961589.626 -8165395.362 10 0 60625 63900.00000 0 24458748.073 5101580.247 -5090280.316 10 0 60625 64800.00000 0 24917660.446 5079973.246 -1916158.775 10 0 60625 65700.00000 0 24988541.091 4946521.264 1295218.706 10 0 60625 66600.00000 0 24659382.197 4755087.893 4481432.814 10 0 60625 67500.00000 0 23931428.872 4561121.344 7580613.040 10 0 60625 68400.00000 0 22819182.296 4419070.225 10532639.862 10 0 60625 69300.00000 0 21349865.836 4379851.507 13280307.858 10 0 60625 70200.00000 0 19562377.776 4488477.934 15770427.389 10 0 60625 71100.00000 0 17505775.568 4781944.879 17954844.068 10 0 60625 72000.00000 0 15237355.730 5287465.227 19791357.289 10 0 60625 72900.00000 0 12820409.811 6021125.868 21244521.370 10 0 60625 73800.00000 0 10321749.648 6987021.614 22286315.403 10 0 60625 74700.00000 0 7809104.118 8176902.313 22896670.444 10 0 60625 75600.00000 0 5348494.204 9570347.775 23063845.381 10 0 60625 76500.00000 0 3001693.656 11135463.423 22784645.458 10 0 60625 77400.00000 0 823878.631 12830068.332 22064480.066 10 0 60625 78300.00000 0 -1138438.206 14603327.220 20917259.068 10 0 60625 79200.00000 0 -2849105.365 16397759.881 19365129.478 10 0 60625 80100.00000 0 -4283593.145 18151545.960 17438056.954 10 0 60625 81000.00000 0 -5429766.101 19801030.726 15173259.102 10 0 60625 81900.00000 0 -6288136.094 21283328.928 12614500.176 10 0 60625 82800.00000 0 -6871585.822 22538919.231 9811259.297 10 0 60625 83700.00000 0 -7204574.505 23514121.614 6817786.752 10 0 60625 84600.00000 0 -7321858.799 24163354.329 3692065.261 10 0 60625 85500.00000 0 -7266782.363 24451075.489 494695.255 10 0 60626 0.00000 0 -7089205.696 24353327.018 -2712274.683 10 0 60626 900.00000 0 -6843163.224 23858814.681 -5866551.596 10 0 60626 1800.00000 0 -6584346.857 22969477.328 -8906808.407 10 0 60626 2700.00000 0 -6367522.384 21700519.427 -11773882.462 10 0 60626 3600.00000 0 -6243988.966 20079903.649 -14411934.107 10 0 60626 4500.00000 0 -6259190.224 18147323.093 -16769543.575 10 0 60626 5400.00000 0 -6450579.407 15952694.810 -18800723.602 10 0 60626 6300.00000 0 -6845830.587 13554236.647 -20465827.087 10 0 60626 7200.00000 0 -7461473.279 11016207.265 -21732331.170 10 0 60626 8100.00000 0 -8302009.950 8406403.562 -22575481.646 10 0 60626 9000.00000 0 -9359555.398 5793520.088 -22978784.463 10 0 60626 9900.00000 0 -10614014.691 3244481.000 -22934334.161 10 0 60626 10800.00000 0 -12033793.415 821856.255 -22442972.456 10 0 60626 11700.00000 0 -13577011.204 -1418529.837 -21514273.586 10 0 60626 12600.00000 0 -15193167.954 -3429697.725 -20166356.577 10 0 60626 13500.00000 0 -16825192.760 -5175231.907 -18425528.122 10 0 60626 14400.00000 0 -18411789.135 -6630549.080 -16325763.182 10 0 60626 15300.00000 0 -19889977.326 -7783663.068 -13908033.841 10 0 60626 16200.00000 0 -21197726.089 -8635415.875 -11219500.050 10 0 60626 17100.00000 0 -22276562.382 -9199167.062 -8312578.783 10 0 60626 18000.00000 0 -23074048.419 -9499956.624 -5243910.727 10 0 60626 18900.00000 0 -23546021.292 -9573179.022 -2073245.685 10 0 60626 19800.00000 0 -23658500.623 -9462826.686 1137730.478 10 0 60626 20700.00000 0 -23389184.018 -9219379.451 4326603.396 10 0 60626 21600.00000 0 -22728467.876 -8897431.106 7431447.890 10 0 60626 22500.00000 0 -21679951.341 -8553154.967 10392031.439 10 0 60626 23400.00000 0 -20260403.212 -8241716.685 13150979.747 10 0 60626 24300.00000 0 -18499194.214 -8014744.122 15654881.938 10 0 60626 25200.00000 0 -16437219.338 -7917961.069 17855314.528 10 0 60626 26100.00000 0 -14125356.029 -7989084.172 19709765.315 10 0 60626 27000.00000 0 -11622522.877 -8256070.830 21182440.638 10 0 60626 27900.00000 0 -8993419.519 -8735790.826 22244941.967 10 0 60626 28800.00000 0 -6306041.069 -9433176.638 22876800.319 10 0 60626 29700.00000 0 -3629069.138 -10340887.379 23065859.717 10 0 60626 30600.00000 0 -1029246.010 -11439500.201 22808503.521 10 0 60626 31500.00000 0 1431161.038 -12698221.344 22109720.144 10 0 60626 32400.00000 0 3696702.272 -14076087.785 20983007.254 10 0 60626 33300.00000 0 5720799.808 -15523610.433 19450116.194 10 0 60626 34200.00000 0 7467430.311 -16984791.646 17540640.918 10 0 60626 35100.00000 0 8912367.697 -18399434.404 15291458.365 10 0 60626 36000.00000 0 10043935.284 -19705648.205 12746029.678 10 0 60626 36900.00000 0 10863236.684 -20842448.229 9953574.322 10 0 60626 37800.00000 0 11383856.078 -21752339.915 6968131.521 10 0 60626 38700.00000 0 11631040.336 -22383781.146 3847525.792 10 0 60626 39600.00000 0 11640396.979 -22693418.589 652255.529 10 0 60626 40500.00000 0 11456162.350 -22648003.608 -2555674.608 10 0 60626 41400.00000 0 11129112.540 -22225905.991 -5713955.219 10 0 60626 42300.00000 0 10714205.069 -21418160.131 -8761184.229 10 0 60626 43200.00000 0 10268050.965 -20228997.731 -11638065.564 10 0 60626 44100.00000 0 9846324.548 -18675842.475 -14288570.484 10 0 60626 45000.00000 0 9501221.192 -16788764.839 -16661038.076 10 0 60626 45900.00000 0 9279071.706 -14609418.044 -18709192.537 10 0 60626 46800.00000 0 9218215.489 -12189498.183 -20393056.486 10 0 60626 47700.00000 0 9347223.891 -9588791.867 -21679741.513 10 0 60626 48600.00000 0 9683550.365 -6872892.320 -22544099.804 10 0 60626 49500.00000 0 10232665.880 -4110678.959 -22969223.404 10 0 60626 50400.00000 0 10987717.403 -1371665.695 -22946780.837 10 0 60626 51300.00000 0 11929724.944 1276671.252 -22477184.105 10 0 60626 52200.00000 0 13028309.601 3771474.340 -21569582.522 10 0 60626 53100.00000 0 14242922.362 6056886.606 -20241683.372 10 0 60626 54000.00000 0 15524521.921 8086135.083 -18519402.892 10 0 60626 54900.00000 0 16817630.542 9823229.055 -16436354.564 10 0 60626 55800.00000 0 18062680.732 11244202.807 -14033185.062 10 0 60626 56700.00000 0 19198553.046 12337852.000 -11356771.374 10 0 60626 57600.00000 0 20165197.110 13105934.371 -8459295.487 10 0 60626 58500.00000 0 20906224.459 13562828.278 -5397215.637 10 0 60626 59400.00000 0 21371363.083 13734665.719 -2230155.237 10 0 60626 60300.00000 0 21518669.628 13657978.742 980267.791 10 0 60626 61200.00000 0 21316405.747 13377918.697 4171647.371 10 0 60626 62100.00000 0 20744499.652 12946125.713 7282006.948 10 0 60626 63000.00000 0 19795531.718 12418340.179 10251004.158 10 0 60626 63900.00000 0 18475203.343 11851858.483 13021098.761 10 0 60626 64800.00000 0 16802270.155 11302941.231 15538661.291 10 0 60626 65700.00000 0 14807943.123 10824283.497 17755001.500 10 0 60626 66600.00000 0 12534783.225 10462653.446 19627297.598 10 0 60626 67500.00000 0 10035136.166 10256797.971 21119409.632 10 0 60626 68400.00000 0 7369172.211 10235702.378 22202562.813 10 0 60626 69300.00000 0 4602612.140 10417276.074 22855889.150 10 0 60626 70200.00000 0 1804232.678 10807518.308 23066818.482 10 0 60626 71100.00000 0 -956746.685 11400198.166 22831312.603 10 0 60626 72000.00000 0 -3613288.969 12177061.831 22153938.858 10 0 60626 72900.00000 0 -6103070.418 13108558.536 21047782.222 10 0 60626 73800.00000 0 -8370813.874 14155055.473 19534197.431 10 0 60626 74700.00000 0 -10370329.987 15268491.837 17642405.402 10 0 60626 75600.00000 0 -12066183.246 16394404.137 15408940.689 10 0 60626 76500.00000 0 -13434914.838 17474239.428 12876959.287 10 0 60626 77400.00000 0 -14465772.260 18447860.920 10095418.716 10 0 60626 78300.00000 0 -15160915.596 19256142.006 7118144.649 10 0 60626 79200.00000 0 -15535091.878 19843540.499 4002800.774 10 0 60626 80100.00000 0 -15614790.832 20160545.071 809780.712 10 0 60626 81000.00000 0 -15436917.025 20165890.560 -2398957.311 10 0 60626 81900.00000 0 -15047033.782 19828447.886 -5561090.868 10 0 60626 82800.00000 0 -14497252.485 19128707.455 -8615145.421 10 0 60626 83700.00000 0 -13843856.149 18059791.654 -11501694.239 10 0 60626 84600.00000 0 -13144757.745 16627951.582 -14164522.120 10 0 60626 85500.00000 0 -12456901.115 14852524.868 -16551729.442 10 0 60627 0.00000 0 -11833715.124 12765354.321 -18616753.893 10 0 60627 900.00000 0 -11322729.312 10409688.640 -20319290.090 10 0 60627 1800.00000 0 -10963453.810 7838612.519 -21626085.490 10 0 60627 2700.00000 0 -10785613.188 5113066.921 -22511599.968 10 0 60627 3600.00000 0 -10807810.865 2299544.207 -22958512.641 10 0 60627 4500.00000 0 -11036681.226 -532447.066 -22958066.652 10 0 60627 5400.00000 0 -11466566.114 -3313041.766 -22510244.568 10 0 60627 6300.00000 0 -12079729.943 -5974691.214 -21623770.675 10 0 60627 7200.00000 0 -12847104.629 -8454737.888 -20315940.014 10 0 60627 8100.00000 0 -13729532.821 -10697784.287 -18612277.474 10 0 60627 9000.00000 0 -14679456.594 -12657757.182 -16546033.789 10 0 60627 9900.00000 0 -15642979.632 -14299581.329 -14157528.615 10 0 60627 10800.00000 0 -16562214.963 -15600393.472 -11493354.074 10 0 60627 11700.00000 0 -17377818.052 -16550246.975 -8605455.019 10 0 60627 12600.00000 0 -18031597.209 -17152279.170 -5550104.907 10 0 60627 13500.00000 0 -18469090.042 -17422336.386 -2386798.270 10 0 60627 14400.00000 0 -18641996.376 -17388074.697 822917.536 10 0 60627 15300.00000 0 -18510364.333 -17087576.594 4016647.452 10 0 60627 16200.00000 0 -18044437.141 -16567544.188 7132366.363 10 0 60627 17100.00000 0 -17226082.887 -15881147.166 10109624.924 10 0 60627 18000.00000 0 -16049747.399 -15085617.894 12890719.797 10 0 60627 18900.00000 0 -14522890.718 -14239696.188 15421805.691 10 0 60627 19800.00000 0 -12665889.452 -13401031.939 17653928.185 10 0 60627 20700.00000 0 -10511409.607 -12623654.875 19543958.246 10 0 60627 21600.00000 0 -8103276.387 -11955617.265 21055411.659 10 0 60627 22500.00000 0 -5494887.999 -11436907.546 22159139.045 10 0 60627 23400.00000 0 -2747239.012 -11097721.148 22833874.701 10 0 60627 24300.00000 0 73365.588 -10957159.630 23066635.204 10 0 60627 25200.00000 0 2897812.240 -11022411.403 22852961.358 10 0 60627 26100.00000 0 5656794.562 -11288447.399 22196999.698 10 0 60627 27000.00000 0 8283436.710 -11738243.943 21111422.460 10 0 60627 27900.00000 0 10715817.727 -12343523.490 19617187.462 10 0 60627 28800.00000 0 12899294.254 -13065982.723 17743141.975 10 0 60627 29700.00000 0 14788526.995 -13858957.472 15525477.246 10 0 60627 30600.00000 0 16349128.159 -14669455.842 13007042.863 10 0 60627 31500.00000 0 17558862.253 -15440475.507 10236532.741 10 0 60627 32400.00000 0 18408350.634 -16113509.002 7267556.946 10 0 60627 33300.00000 0 18901250.476 -16631132.560 4157615.874 10 0 60627 34200.00000 0 19053900.308 -16939569.932 966995.570 10 0 60627 35100.00000 0 18894446.481 -16991123.094 -2242395.272 10 0 60627 36000.00000 0 18461486.650 -16746366.651 -5408224.458 10 0 60627 36900.00000 0 17802286.738 -16176012.116 -8468948.334 10 0 60627 37800.00000 0 16970646.125 -15262361.666 -11365012.812 10 0 60627 38700.00000 0 16024500.906 -14000287.949 -14040019.434 10 0 60627 39600.00000 0 15023366.514 -12397696.272 -16441832.880 10 0 60627 40500.00000 0 14025728.082 -10475447.334 -18523607.436 10 0 60627 41400.00000 0 13086489.424 -8266741.451 -20244711.437 10 0 60627 42300.00000 0 12254589.216 -5815988.096 -21571530.711 10 0 60627 43200.00000 0 11570885.962 -3177206.499 -22478134.516 10 0 60627 44100.00000 0 11066401.941 -412022.993 -22946790.305 10 0 60627 45000.00000 0 10761001.112 2412651.924 -22968316.642 10 0 60627 45900.00000 0 10662557.358 5227170.212 -22542267.003 10 0 60627 46800.00000 0 10766648.565 7961810.403 -21676940.563 10 0 60627 47700.00000 0 11056789.500 10549447.901 -20389219.618 10 0 60627 48600.00000 0 11505193.425 12928119.883 -18704236.814 10 0 60627 49500.00000 0 12074029.694 15043377.641 -16654878.853 10 0 60627 50400.00000 0 12717123.387 16850328.149 -14281136.716 10 0 60627 51300.00000 0 13382024.065 18315279.937 -11629315.630 10 0 60627 52200.00000 0 14012354.981 19416925.180 -8751120.922 10 0 60627 53100.00000 0 14550342.150 20147009.656 -5702638.533 10 0 60627 54000.00000 0 14939415.068 20510464.130 -2543231.088 10 0 60627 54900.00000 0 15126768.101 20524993.605 665627.846 10 0 60627 55800.00000 0 15065773.386 20220143.915 3861557.569 10 0 60627 56700.00000 0 14718142.842 19635887.181 6982487.736 10 0 60627 57600.00000 0 14055747.819 18820787.808 9967865.246 10 0 60627 58500.00000 0 13062019.781 17829828.097 12759826.688 10 0 60627 59400.00000 0 11732873.396 16721986.355 15304313.705 10 0 60627 60300.00000 0 10077113.689 15557670.236 17552110.156 10 0 60627 61200.00000 0 8116310.593 14396113.418 19459781.891 10 0 60627 62100.00000 0 5884146.436 13292844.547 20990502.209 10 0 60627 63000.00000 0 3425263.525 12297333.719 22114748.563 10 0 60627 63900.00000 0 793659.472 11450913.820 22810858.598 10 0 60627 64800.00000 0 -1949303.871 10785062.246 23065436.304 10 0 60627 65700.00000 0 -4737196.501 10320113.312 22873601.763 10 0 60627 66600.00000 0 -7501027.790 10064453.858 22239080.552 10 0 60627 67500.00000 0 -10171863.441 10014234.601 21174131.583 10 0 60627 68400.00000 0 -12683445.527 10153608.739 19699314.727 10 0 60627 69300.00000 0 -14974708.997 10455487.686 17843102.159 10 0 60627 70200.00000 0 -16992092.057 10882782.672 15641339.988 10 0 60627 71100.00000 0 -18691546.004 11390080.903 13136569.232 10 0 60627 72000.00000 0 -20040161.883 11925686.927 10377217.798 10 0 60627 72900.00000 0 -21017346.783 12433944.434 7416677.558 10 0 60627 73800.00000 0 -21615500.732 12857741.743 4312282.933 10 0 60627 74700.00000 0 -21840165.544 13141095.972 1124209.644 10 0 60627 75600.00000 0 -21709638.747 13231707.091 -2085685.899 10 0 60627 76500.00000 0 -21254068.020 13083373.644 -5255064.500 10 0 60627 77400.00000 0 -20514063.373 12658167.153 -8322316.115 10 0 60627 78300.00000 0 -19538884.800 11928271.898 -11227761.981 10 0 60627 79200.00000 0 -18384281.259 10877410.408 -13914822.946 10 0 60627 80100.00000 0 -17110071.872 9501792.253 -16331130.388 10 0 60627 81000.00000 0 -15777571.439 7810543.687 -18429557.172 10 0 60627 81900.00000 0 -14446969.212 5825597.616 -20169147.577 10 0 60627 82800.00000 0 -13174772.019 3581046.216 -21515927.093 10 0 60627 83700.00000 0 -12011420.287 1121981.407 -22443575.494 10 0 60627 84600.00000 0 -10999178.152 -1497129.853 -22933949.294 10 0 60627 85500.00000 0 -10170387.242 -4214468.584 -22977442.827 99